| time (UTC) | temp F | wind direction | speed knots | gust knots | rain 1hr in | rain 24hr in | rain mn in | humidity % | barometer mb |
| 20260505125019 | 46 | 0 | 1.7 | 2.6 | 0.00 | 0.00 | 0.00 | 65 | 1010.6 |
| 20260505124537 | 46 | 0 | 0.9 | 2.6 | 0.00 | 0.00 | 0.00 | 65 | 1010.4 |
| 20260505124020 | 46 | 0 | 0.0 | 3.5 | 0.00 | 0.00 | 0.00 | 65 | 1010.4 |
| 20260505123520 | 46 | 60 | 1.7 | 3.5 | 0.00 | 0.00 | 0.00 | 65 | 1010.6 |
| 20260505123048 | 46 | 59 | 2.6 | 3.5 | 0.00 | 0.00 | 0.00 | 65 | 1010.6 |
| 20260505122518 | 46 | 58 | 1.7 | 3.5 | 0.00 | 0.00 | 0.00 | 65 | 1010.6 |
| 20260505122018 | 46 | 58 | 1.7 | 2.6 | 0.00 | 0.00 | 0.00 | 66 | 1010.5 |
| 20260505121543 | 45 | 58 | 1.7 | 2.6 | 0.00 | 0.00 | 0.00 | 67 | 1010.4 |
| 20260505121020 | 45 | 58 | 0.9 | 2.6 | 0.00 | 0.00 | 0.00 | 67 | 1010.3 |
| 20260505120518 | 45 | 57 | 0.9 | 3.5 | 0.00 | 0.00 | 0.00 | 69 | 1010.2 |
| 20260505120052 | 45 | 57 | 1.7 | 3.5 | 0.00 | 0.00 | 0.00 | 68 | 1010.1 |
| 20260505115517 | 45 | 57 | 1.7 | 3.5 | 0.00 | 0.00 | 0.00 | 68 | 1010.1 |
| 20260505115019 | 44 | 55 | 0.9 | 2.6 | 0.00 | 0.00 | 0.00 | 68 | 1010.0 |
| 20260505114537 | 44 | 0 | 0.9 | 3.5 | 0.00 | 0.00 | 0.00 | 67 | 1009.8 |
| 20260505114019 | 44 | 55 | 1.7 | 3.5 | 0.00 | 0.00 | 0.00 | 67 | 1009.9 |
| 20260505113519 | 45 | 55 | 2.6 | 3.5 | 0.00 | 0.00 | 0.00 | 66 | 1009.9 |
| 20260505113035 | 45 | 56 | 1.7 | 3.5 | 0.00 | 0.00 | 0.00 | 65 | 1009.7 |
| 20260505112522 | 44 | 57 | 1.7 | 4.3 | 0.00 | 0.00 | 0.00 | 66 | 1009.7 |
| 20260505112019 | 44 | 56 | 2.6 | 4.3 | 0.00 | 0.00 | 0.00 | 65 | 1009.6 |
| 20260505111536 | 44 | 62 | 2.6 | 4.3 | 0.00 | 0.00 | 0.00 | 66 | 1009.5 |
| 20260505111022 | 44 | 67 | 2.6 | 3.5 | 0.00 | 0.00 | 0.00 | 66 | 1009.5 |
| 20260505110518 | 44 | 69 | 2.6 | 3.5 | 0.00 | 0.00 | 0.00 | 67 | 1009.5 |
| 20260505102018 | 47 | 71 | 0.0 | 2.6 | 0.00 | 0.00 | 0.00 | 62 | 1009.3 |
| 20260505101536 | 47 | 0 | 0.9 | 3.5 | 0.00 | 0.00 | 0.00 | 62 | 1009.2 |
| 20260505101018 | 47 | 71 | 1.7 | 4.3 | 0.00 | 0.00 | 0.00 | 63 | 1009.0 |
| 20260505100519 | 47 | 70 | 2.6 | 4.3 | 0.00 | 0.00 | 0.00 | 64 | 1008.9 |
| 20260505100037 | 47 | 67 | 2.6 | 4.3 | 0.00 | 0.00 | 0.00 | 64 | 1008.9 |
| 20260505095517 | 47 | 67 | 2.6 | 4.3 | 0.00 | 0.00 | 0.00 | 64 | 1008.9 |
| 20260505095023 | 48 | 64 | 2.6 | 4.3 | 0.00 | 0.00 | 0.00 | 63 | 1008.8 |
| 20260505094540 | 49 | 62 | 2.6 | 5.2 | 0.00 | 0.00 | 0.00 | 61 | 1008.9 |
| 20260505094019 | 49 | 71 | 2.6 | 6.1 | 0.00 | 0.00 | 0.00 | 59 | 1008.9 |
| 20260505093520 | 50 | 79 | 4.3 | 6.1 | 0.00 | 0.00 | 0.00 | 59 | 1008.7 |
| 20260505093037 | 50 | 80 | 3.5 | 6.1 | 0.00 | 0.00 | 0.00 | 59 | 1008.6 |
| 20260505092520 | 50 | 80 | 3.5 | 6.1 | 0.00 | 0.00 | 0.00 | 59 | 1008.7 |
| 20260505092017 | 50 | 95 | 1.7 | 3.5 | 0.00 | 0.00 | 0.00 | 59 | 1008.7 |
| 20260505091551 | 51 | 107 | 1.7 | 2.6 | 0.00 | 0.00 | 0.00 | 59 | 1008.6 |
| 20260505091018 | 51 | 107 | 1.7 | 2.6 | 0.00 | 0.00 | 0.00 | 58 | 1008.7 |
| 20260505090519 | 51 | 107 | 0.9 | 3.5 | 0.00 | 0.00 | 0.00 | 56 | 1008.8 |
| 20260505090035 | 52 | 107 | 1.7 | 3.5 | 0.00 | 0.00 | 0.00 | 55 | 1008.9 |
| 20260505085518 | 52 | 106 | 2.6 | 3.5 | 0.00 | 0.00 | 0.00 | 55 | 1008.9 |
| 20260505085020 | 52 | 82 | 1.7 | 2.6 | 0.00 | 0.00 | 0.00 | 54 | 1008.9 |
| 20260505084600 | 53 | 80 | 0.9 | 2.6 | 0.00 | 0.00 | 0.00 | 53 | 1009.0 |
| 20260505084017 | 53 | 80 | 0.9 | 3.5 | 0.00 | 0.00 | 0.00 | 53 | 1009.0 |
| 20260505083522 | 53 | 80 | 1.7 | 3.5 | 0.00 | 0.00 | 0.00 | 53 | 1009.0 |
| 20260505083058 | 53 | 80 | 1.7 | 3.5 | 0.00 | 0.00 | 0.00 | 52 | 1008.9 |
| 20260505082519 | 53 | 80 | 1.7 | 4.3 | 0.00 | 0.00 | 0.00 | 52 | 1008.9 |
| 20260505082018 | 54 | 80 | 2.6 | 4.3 | 0.00 | 0.00 | 0.00 | 52 | 1008.8 |
| 20260505081552 | 54 | 79 | 2.6 | 6.1 | 0.00 | 0.00 | 0.00 | 51 | 1008.8 |
| 20260505081020 | 54 | 79 | 2.6 | 6.1 | 0.00 | 0.00 | 0.00 | 51 | 1008.7 |
| 20260505080520 | 54 | 80 | 2.6 | 7.0 | 0.00 | 0.00 | 0.00 | 51 | 1008.7 |
| 20260505080045 | 54 | 80 | 4.3 | 7.0 | 0.00 | 0.00 | 0.00 | 51 | 1008.6 |
| 20260505075523 | 54 | 78 | 4.3 | 7.8 | 0.00 | 0.00 | 0.00 | 52 | 1008.6 |
| 20260505075019 | 54 | 78 | 6.1 | 7.8 | 0.00 | 0.00 | 0.00 | 52 | 1008.5 |
| 20260505074535 | 55 | 76 | 6.1 | 8.7 | 0.00 | 0.00 | 0.00 | 52 | 1008.5 |
| 20260505074018 | 55 | 78 | 6.1 | 8.7 | 0.00 | 0.00 | 0.00 | 50 | 1008.6 |
| 20260505073518 | 56 | 76 | 7.0 | 9.6 | 0.00 | 0.00 | 0.00 | 49 | 1008.5 |
| 20260505073049 | 56 | 74 | 7.0 | 9.6 | 0.00 | 0.00 | 0.00 | 49 | 1008.5 |
| 20260505072518 | 56 | 68 | 7.0 | 8.7 | 0.00 | 0.00 | 0.00 | 48 | 1008.5 |
| 20260505072020 | 56 | 76 | 7.0 | 8.7 | 0.00 | 0.00 | 0.00 | 48 | 1008.5 |
| 20260505071546 | 56 | 77 | 7.0 | 8.7 | 0.00 | 0.00 | 0.00 | 48 | 1008.5 |
| 20260505071019 | 56 | 83 | 7.0 | 8.7 | 0.00 | 0.00 | 0.00 | 49 | 1008.7 |
| 20260505070523 | 56 | 77 | 6.1 | 8.7 | 0.00 | 0.00 | 0.00 | 49 | 1008.6 |
| 20260505070044 | 56 | 75 | 6.1 | 7.8 | 0.00 | 0.00 | 0.00 | 49 | 1008.7 |
| 20260505065521 | 56 | 71 | 6.1 | 7.8 | 0.00 | 0.00 | 0.00 | 49 | 1008.5 |
| 20260505065020 | 55 | 72 | 6.1 | 7.8 | 0.00 | 0.00 | 0.00 | 50 | 1008.5 |
| 20260505064537 | 54 | 81 | 5.2 | 7.0 | 0.00 | 0.00 | 0.00 | 53 | 1008.5 |
| 20260505064022 | 53 | 77 | 3.5 | 6.1 | 0.00 | 0.00 | 0.00 | 55 | 1008.4 |
| 20260505063520 | 53 | 69 | 2.6 | 6.1 | 0.00 | 0.00 | 0.00 | 57 | 1008.5 |
| 20260505063046 | 52 | 75 | 3.5 | 6.1 | 0.00 | 0.00 | 0.00 | 58 | 1008.4 |
| 20260505062520 | 52 | 80 | 2.6 | 4.3 | 0.00 | 0.00 | 0.00 | 60 | 1008.4 |
| 20260505062018 | 51 | 79 | 1.7 | 2.6 | 0.00 | 0.00 | 0.00 | 61 | 1008.4 |
| 20260505061533 | 52 | 80 | 1.7 | 2.6 | 0.00 | 0.00 | 0.00 | 60 | 1008.2 |
| 20260505061020 | 52 | 79 | 0.9 | 2.6 | 0.00 | 0.00 | 0.00 | 59 | 1008.1 |
| 20260505060520 | 52 | 79 | 0.9 | 2.6 | 0.00 | 0.00 | 0.00 | 58 | 1008.0 |
| 20260505060056 | 52 | 79 | 1.7 | 2.6 | 0.00 | 0.00 | 0.00 | 58 | 1008.0 |
| 20260505055521 | 52 | 79 | 1.7 | 3.5 | 0.00 | 0.00 | 0.00 | 58 | 1007.9 |
| 20260505055019 | 52 | 79 | 1.7 | 3.5 | 0.00 | 0.00 | 0.00 | 58 | 1008.0 |
| 20260505054542 | 52 | 79 | 1.7 | 3.5 | 0.00 | 0.00 | 0.00 | 58 | 1008.0 |
| 20260505054021 | 52 | 79 | 1.7 | 3.5 | 0.00 | 0.00 | 0.00 | 58 | 1007.9 |
| 20260505053518 | 51 | 79 | 1.7 | 3.5 | 0.00 | 0.00 | 0.00 | 58 | 1007.9 |
| 20260505053037 | 52 | 79 | 1.7 | 3.5 | 0.00 | 0.00 | 0.00 | 59 | 1007.9 |
| 20260505052519 | 52 | 79 | 0.9 | 3.5 | 0.00 | 0.00 | 0.00 | 59 | 1007.9 |
| 20260505052019 | 52 | 79 | 0.9 | 2.6 | 0.00 | 0.00 | 0.00 | 57 | 1007.9 |
| 20260505051534 | 52 | 79 | 0.9 | 2.6 | 0.00 | 0.00 | 0.00 | 58 | 1007.9 |
| 20260505051021 | 53 | 0 | 0.9 | 3.5 | 0.00 | 0.00 | 0.00 | 58 | 1007.8 |
| 20260505050518 | 53 | 78 | 0.9 | 3.5 | 0.00 | 0.00 | 0.00 | 56 | 1007.7 |
| 20260505041549 | 57 | 171 | 0.0 | 3.5 | 0.00 | 0.00 | 0.00 | 55 | 1007.2 |
| 20260505041019 | 57 | 0 | 0.0 | 0.9 | 0.00 | 0.00 | 0.00 | 55 | 1007.1 |
| 20260505040526 | 57 | 0 | 0.0 | 0.9 | 0.00 | 0.00 | 0.00 | 54 | 1007.1 |
| 20260505040049 | 58 | 0 | 0.0 | 3.5 | 0.00 | 0.00 | 0.00 | 53 | 1007.1 |
| 20260505035522 | 58 | 0 | 0.9 | 6.1 | 0.00 | 0.00 | 0.00 | 53 | 1007.1 |
| 20260505035020 | 58 | 207 | 0.0 | 6.1 | 0.00 | 0.00 | 0.00 | 51 | 1007.0 |
| 20260505034541 | 58 | 207 | 4.3 | 6.1 | 0.00 | 0.00 | 0.00 | 51 | 1006.8 |
| 20260505034022 | 59 | 204 | 3.5 | 5.2 | 0.00 | 0.00 | 0.00 | 50 | 1006.8 |
| 20260505033520 | 60 | 204 | 1.7 | 3.5 | 0.00 | 0.00 | 0.00 | 49 | 1006.8 |
| 20260505033041 | 60 | 204 | 0.9 | 7.0 | 0.00 | 0.00 | 0.00 | 50 | 1006.9 |
| 20260505032521 | 60 | 205 | 2.6 | 8.7 | 0.00 | 0.00 | 0.00 | 50 | 1006.8 |
| 20260505032023 | 60 | 182 | 5.2 | 8.7 | 0.00 | 0.00 | 0.00 | 51 | 1006.7 |
| 20260505031540 | 60 | 178 | 5.2 | 9.6 | 0.00 | 0.00 | 0.00 | 50 | 1006.7 |
| 20260505031020 | 61 | 169 | 5.2 | 11.3 | 0.00 | 0.00 | 0.00 | 50 | 1006.6 |
| 20260505030518 | 61 | 159 | 7.8 | 11.3 | 0.00 | 0.00 | 0.00 | 51 | 1006.6 |
| 20260505030046 | 60 | 169 | 7.0 | 11.3 | 0.00 | 0.00 | 0.00 | 52 | 1006.6 |
| 20260505025522 | 60 | 151 | 7.0 | 10.4 | 0.00 | 0.00 | 0.00 | 52 | 1006.6 |
| 20260505025018 | 59 | 151 | 6.1 | 9.6 | 0.00 | 0.00 | 0.00 | 53 | 1006.4 |
| 20260505024535 | 59 | 152 | 7.0 | 8.7 | 0.00 | 0.00 | 0.00 | 54 | 1006.5 |
| 20260505024019 | 58 | 157 | 6.1 | 8.7 | 0.00 | 0.00 | 0.00 | 55 | 1006.5 |
| 20260505023520 | 59 | 154 | 5.2 | 7.0 | 0.00 | 0.00 | 0.00 | 54 | 1006.4 |
| 20260505023037 | 61 | 159 | 4.3 | 7.0 | 0.00 | 0.00 | 0.00 | 52 | 1006.5 |
| 20260505022519 | 64 | 171 | 4.3 | 6.1 | 0.00 | 0.00 | 0.00 | 48 | 1006.4 |
| 20260505022021 | 65 | 192 | 4.3 | 6.1 | 0.00 | 0.00 | 0.00 | 43 | 1006.4 |
| 20260505021539 | 66 | 211 | 3.5 | 5.2 | 0.00 | 0.00 | 0.00 | 42 | 1006.2 |
| 20260505021018 | 66 | 232 | 2.6 | 7.0 | 0.00 | 0.00 | 0.00 | 40 | 1006.2 |
| 20260505020518 | 67 | 252 | 3.5 | 8.7 | 0.00 | 0.00 | 0.00 | 39 | 1006.2 |
| 20260505020041 | 67 | 251 | 5.2 | 8.7 | 0.00 | 0.00 | 0.00 | 38 | 1006.2 |
| 20260505015521 | 68 | 259 | 6.1 | 8.7 | 0.00 | 0.00 | 0.00 | 37 | 1006.2 |
| 20260505015019 | 68 | 237 | 6.1 | 9.6 | 0.00 | 0.00 | 0.00 | 36 | 1006.2 |
| 20260505014601 | 68 | 241 | 7.0 | 10.4 | 0.00 | 0.00 | 0.00 | 34 | 1006.2 |
| 20260505014018 | 69 | 243 | 7.8 | 11.3 | 0.00 | 0.00 | 0.00 | 33 | 1006.2 |
| 20260505013520 | 69 | 260 | 7.0 | 11.3 | 0.00 | 0.00 | 0.00 | 32 | 1006.2 |
| 20260505013047 | 69 | 246 | 7.8 | 11.3 | 0.00 | 0.00 | 0.00 | 31 | 1006.4 |
| 20260505012523 | 69 | 256 | 7.8 | 11.3 | 0.00 | 0.00 | 0.00 | 30 | 1006.3 |
| 20260505012019 | 70 | 211 | 7.8 | 13.0 | 0.00 | 0.00 | 0.00 | 30 | 1006.4 |
| 20260505011540 | 70 | 256 | 8.7 | 13.0 | 0.00 | 0.00 | 0.00 | 29 | 1006.5 |
| 20260505011019 | 70 | 253 | 9.6 | 13.9 | 0.00 | 0.00 | 0.00 | 29 | 1006.5 |
| 20260505010519 | 71 | 268 | 9.6 | 13.9 | 0.00 | 0.00 | 0.00 | 29 | 1006.6 |
| 20260505010053 | 71 | 293 | 6.1 | 13.0 | 0.00 | 0.00 | 0.00 | 28 | 1006.5 |
| 20260505005519 | 71 | 257 | 8.7 | 13.0 | 0.00 | 0.00 | 0.00 | 28 | 1006.6 |
| 20260505005019 | 72 | 251 | 5.2 | 13.0 | 0.00 | 0.00 | 0.00 | 27 | 1006.6 |
| 20260505004548 | 72 | 255 | 7.8 | 13.0 | 0.00 | 0.00 | 0.00 | 27 | 1006.6 |
| 20260505004020 | 72 | 275 | 7.0 | 12.2 | 0.00 | 0.00 | 0.00 | 27 | 1006.7 |
| 20260505003518 | 72 | 253 | 7.0 | 12.2 | 0.00 | 0.00 | 0.00 | 26 | 1006.7 |
| 20260505003054 | 72 | 205 | 6.1 | 12.2 | 0.00 | 0.00 | 0.00 | 26 | 1006.7 |
| 20260505002518 | 73 | 260 | 4.3 | 9.6 | 0.00 | 0.00 | 0.00 | 25 | 1006.6 |
| 20260505002020 | 73 | 213 | 3.5 | 10.4 | 0.00 | 0.00 | 0.00 | 25 | 1006.7 |
| 20260505001541 | 73 | 231 | 2.6 | 10.4 | 0.00 | 0.00 | 0.00 | 25 | 1006.7 |
| 20260505001020 | 73 | 254 | 5.2 | 13.0 | 0.00 | 0.00 | 0.00 | 25 | 1006.8 |
| 20260505000519 | 73 | 288 | 5.2 | 13.0 | 0.00 | 0.00 | 0.00 | 24 | 1006.8 |
| 20260505000040 | 73 | 243 | 5.2 | 13.0 | 0.00 | 0.00 | 0.00 | 24 | 1007.0 |
| 20260504235519 | 73 | 297 | 6.1 | 9.6 | 0.00 | 0.00 | 0.00 | 24 | 1007.0 |
| 20260504235019 | 73 | 252 | 4.3 | 8.7 | 0.00 | 0.00 | 0.00 | 24 | 1006.8 |
| 20260504234536 | 73 | 240 | 3.5 | 8.7 | 0.00 | 0.00 | 0.00 | 24 | 1006.8 |
| 20260504234021 | 73 | 202 | 3.5 | 10.4 | 0.00 | 0.00 | 0.00 | 24 | 1006.8 |
| 20260504233520 | 73 | 211 | 4.3 | 10.4 | 0.00 | 0.00 | 0.00 | 23 | 1006.9 |
| 20260504233037 | 73 | 213 | 5.2 | 12.2 | 0.00 | 0.00 | 0.00 | 25 | 1007.1 |
| 20260504232522 | 73 | 208 | 4.3 | 12.2 | 0.00 | 0.00 | 0.00 | 23 | 1007.1 |
| 20260504232019 | 74 | 199 | 7.0 | 12.2 | 0.00 | 0.00 | 0.00 | 23 | 1007.2 |
| 20260504231540 | 74 | 246 | 4.3 | 7.8 | 0.00 | 0.00 | 0.00 | 25 | 1007.2 |
| 20260504231018 | 73 | 215 | 2.6 | 10.4 | 0.00 | 0.00 | 0.00 | 26 | 1007.3 |
| 20260504230521 | 74 | 186 | 3.5 | 10.4 | 0.00 | 0.00 | 0.00 | 23 | 1007.4 |
| 20260504230041 | 75 | 239 | 4.3 | 10.4 | 0.00 | 0.00 | 0.00 | 22 | 1007.5 |
| 20260504225523 | 75 | 306 | 4.3 | 8.7 | 0.00 | 0.00 | 0.00 | 24 | 1007.5 |
| 20260504225020 | 74 | 230 | 2.6 | 7.8 | 0.00 | 0.00 | 0.00 | 24 | 1007.5 |
| 20260504224537 | 73 | 299 | 2.6 | 9.6 | 0.00 | 0.00 | 0.00 | 25 | 1007.6 |
| 20260504224019 | 72 | 257 | 3.5 | 10.4 | 0.00 | 0.00 | 0.00 | 25 | 1007.6 |
| 20260504223521 | 72 | 256 | 4.3 | 10.4 | 0.00 | 0.00 | 0.00 | 26 | 1007.6 |
| 20260504223055 | 73 | 213 | 5.2 | 10.4 | 0.00 | 0.00 | 0.00 | 24 | 1007.8 |
| 20260504222520 | 74 | 240 | 4.3 | 8.7 | 0.00 | 0.00 | 0.00 | 24 | 1008.0 |
| 20260504222019 | 75 | 232 | 1.7 | 9.6 | 0.00 | 0.00 | 0.00 | 23 | 1008.0 |
| 20260504221543 | 75 | 218 | 1.7 | 9.6 | 0.00 | 0.00 | 0.00 | 23 | 1008.0 |
| 20260504221019 | 75 | 200 | 3.5 | 9.6 | 0.00 | 0.00 | 0.00 | 23 | 1008.0 |
| 20260504220519 | 74 | 336 | 2.6 | 14.8 | 0.00 | 0.00 | 0.00 | 23 | 1008.1 |
| 20260504220035 | 75 | 217 | 5.2 | 14.8 | 0.00 | 0.00 | 0.00 | 22 | 1008.2 |
| 20260504215520 | 74 | 296 | 7.0 | 14.8 | 0.00 | 0.00 | 0.00 | 24 | 1007.9 |
| 20260504215024 | 74 | 0 | 1.7 | 7.8 | 0.00 | 0.00 | 0.00 | 24 | 1008.2 |
| 20260504214538 | 74 | 187 | 1.7 | 10.4 | 0.00 | 0.00 | 0.00 | 24 | 1008.3 |
| 20260504214022 | 73 | 0 | 1.7 | 10.4 | 0.00 | 0.00 | 0.00 | 22 | 1008.4 |
| 20260504213519 | 73 | 282 | 5.2 | 9.6 | 0.00 | 0.00 | 0.00 | 22 | 1008.5 |
| 20260504213044 | 73 | 240 | 2.6 | 11.3 | 0.00 | 0.00 | 0.00 | 24 | 1008.5 |
| 20260504212521 | 72 | 169 | 5.2 | 13.0 | 0.00 | 0.00 | 0.00 | 25 | 1008.3 |
| 20260504212020 | 72 | 173 | 5.2 | 13.0 | 0.00 | 0.00 | 0.00 | 29 | 1008.6 |
| 20260504211603 | 73 | 161 | 6.1 | 11.3 | 0.00 | 0.00 | 0.00 | 25 | 1008.5 |
| 20260504211018 | 74 | 249 | 3.5 | 9.6 | 0.00 | 0.00 | 0.00 | 24 | 1008.6 |
| 20260504210519 | 74 | 194 | 5.2 | 9.6 | 0.00 | 0.00 | 0.00 | 28 | 1008.7 |
| 20260504210043 | 73 | 0 | 1.7 | 5.2 | 0.00 | 0.00 | 0.00 | 24 | 1008.7 |
| 20260504205520 | 73 | 190 | 1.7 | 7.0 | 0.00 | 0.00 | 0.00 | 26 | 1008.7 |
| 20260504205020 | 73 | 170 | 1.7 | 11.3 | 0.00 | 0.00 | 0.00 | 24 | 1008.8 |
| 20260504204535 | 73 | 254 | 2.6 | 11.3 | 0.00 | 0.00 | 0.00 | 22 | 1008.9 |
| 20260504204019 | 73 | 252 | 5.2 | 11.3 | 0.00 | 0.00 | 0.00 | 22 | 1008.9 |
| 20260504203521 | 73 | 0 | 0.9 | 10.4 | 0.00 | 0.00 | 0.00 | 23 | 1008.9 |
| 20260504203036 | 73 | 232 | 3.5 | 7.8 | 0.00 | 0.00 | 0.00 | 24 | 1009.0 |
| 20260504202519 | 72 | 265 | 0.9 | 8.7 | 0.00 | 0.00 | 0.00 | 30 | 1009.1 |
| 20260504202018 | 71 | 216 | 2.6 | 10.4 | 0.00 | 0.00 | 0.00 | 26 | 1009.1 |
| 20260504201539 | 71 | 198 | 5.2 | 10.4 | 0.00 | 0.00 | 0.00 | 29 | 1009.3 |
| 20260504201018 | 71 | 190 | 2.6 | 6.1 | 0.00 | 0.00 | 0.00 | 28 | 1009.2 |
| 20260504200518 | 71 | 161 | 1.7 | 10.4 | 0.00 | 0.00 | 0.00 | 28 | 1009.3 |
| 20260504200041 | 71 | 192 | 3.5 | 10.4 | 0.00 | 0.00 | 0.00 | 28 | 1009.3 |
| 20260504195522 | 71 | 190 | 7.0 | 10.4 | 0.00 | 0.00 | 0.00 | 29 | 1009.5 |
| 20260504195020 | 71 | 180 | 2.6 | 9.6 | 0.00 | 0.00 | 0.00 | 30 | 1009.5 |
| 20260504194545 | 71 | 183 | 2.6 | 11.3 | 0.00 | 0.00 | 0.00 | 29 | 1009.4 |
| 20260504194018 | 71 | 182 | 4.3 | 11.3 | 0.00 | 0.00 | 0.00 | 30 | 1009.4 |
| 20260504193520 | 71 | 184 | 0.9 | 8.7 | 0.00 | 0.00 | 0.00 | 30 | 1009.6 |
| 20260504193038 | 71 | 180 | 3.5 | 8.7 | 0.00 | 0.00 | 0.00 | 29 | 1009.5 |
| 20260504192520 | 70 | 123 | 1.7 | 7.8 | 0.00 | 0.00 | 0.00 | 30 | 1009.7 |
| 20260504192019 | 70 | 117 | 1.7 | 13.0 | 0.00 | 0.00 | 0.00 | 31 | 1009.7 |
| 20260504191537 | 70 | 160 | 5.2 | 13.9 | 0.00 | 0.00 | 0.00 | 33 | 1009.7 |
| 20260504191019 | 70 | 168 | 6.1 | 13.9 | 0.00 | 0.00 | 0.00 | 33 | 1009.7 |
| 20260504190519 | 69 | 169 | 3.5 | 9.6 | 0.00 | 0.00 | 0.00 | 32 | 1009.7 |
| 20260504190043 | 69 | 123 | 1.7 | 9.6 | 0.00 | 0.00 | 0.00 | 32 | 1009.8 |
| 20260504185519 | 70 | 168 | 3.5 | 7.8 | 0.00 | 0.00 | 0.00 | 30 | 1009.9 |
| 20260504185020 | 69 | 153 | 2.6 | 13.0 | 0.00 | 0.00 | 0.00 | 33 | 1010.1 |
| 20260504184545 | 69 | 78 | 3.5 | 13.0 | 0.00 | 0.00 | 0.00 | 32 | 1010.2 |
| 20260504184019 | 69 | 169 | 6.1 | 13.0 | 0.00 | 0.00 | 0.00 | 32 | 1010.1 |
| 20260504183519 | 69 | 170 | 6.1 | 11.3 | 0.00 | 0.00 | 0.00 | 31 | 1010.1 |
| 20260504183041 | 69 | 91 | 0.9 | 7.0 | 0.00 | 0.00 | 0.00 | 30 | 1010.1 |
| 20260504182520 | 69 | 80 | 3.5 | 7.0 | 0.00 | 0.00 | 0.00 | 32 | 1010.2 |
| 20260504182020 | 69 | 102 | 3.5 | 6.1 | 0.00 | 0.00 | 0.00 | 30 | 1010.5 |
| 20260504181542 | 69 | 49 | 2.6 | 6.1 | 0.00 | 0.00 | 0.00 | 32 | 1010.4 |
| 20260504181020 | 69 | 103 | 2.6 | 4.3 | 0.00 | 0.00 | 0.00 | 30 | 1010.6 |
| 20260504180519 | 69 | 103 | 0.9 | 3.5 | 0.00 | 0.00 | 0.00 | 29 | 1010.7 |
| 20260504180038 | 69 | 165 | 0.9 | 3.5 | 0.00 | 0.00 | 0.00 | 29 | 1010.7 |
| 20260504175519 | 68 | 0 | 0.9 | 4.3 | 0.00 | 0.00 | 0.00 | 30 | 1010.7 |
| 20260504175024 | 68 | 167 | 0.9 | 7.0 | 0.00 | 0.00 | 0.00 | 31 | 1010.7 |
| 20260504174537 | 68 | 169 | 2.6 | 7.0 | 0.00 | 0.00 | 0.00 | 35 | 1010.8 |
| 20260504174019 | 67 | 53 | 0.0 | 4.3 | 0.00 | 0.00 | 0.00 | 34 | 1010.8 |
| 20260504173519 | 67 | 53 | 0.9 | 5.2 | 0.00 | 0.00 | 0.00 | 35 | 1010.8 |
| 20260504173034 | 66 | 53 | 1.7 | 5.2 | 0.00 | 0.00 | 0.00 | 35 | 1010.9 |
| 20260504172519 | 66 | 161 | 1.7 | 5.2 | 0.00 | 0.00 | 0.00 | 35 | 1010.9 |
| 20260504172018 | 65 | 58 | 0.9 | 4.3 | 0.00 | 0.00 | 0.00 | 36 | 1011.0 |
| 20260504171542 | 64 | 0 | 0.9 | 6.1 | 0.00 | 0.00 | 0.00 | 37 | 1010.8 |
| 20260504171020 | 64 | 78 | 2.6 | 6.1 | 0.00 | 0.00 | 0.00 | 37 | 1010.9 |
| 20260504170520 | 64 | 75 | 1.7 | 4.3 | 0.00 | 0.00 | 0.00 | 39 | 1010.8 |
| 20260504151020 | 49 | 311 | 0.9 | 3.5 | 0.00 | 0.00 | 0.00 | 64 | 1011.2 |
| 20260504150521 | 48 | 300 | 0.9 | 2.6 | 0.00 | 0.00 | 0.00 | 66 | 1011.2 |
| 20260504141020 | 38 | 0 | 0.0 | 0.0 | 0.00 | 0.00 | 0.00 | 78 | 1011.2 |
| 20260504140521 | 37 | 0 | 0.0 | 0.0 | 0.00 | 0.00 | 0.00 | 79 | 1011.3 |